Lapse_Rate
9.2 9.2 9.3 9.4 9.2 9.0 8.8 8.9 8.8 9.1 9.0 9.3 8.4 8.2 8.5 8.6 8.3 8.1 6.7 8.0 6.8 6.6 6.7 6.5 6.3 5.7 6.3 6.6 6.5 6.7 6.5 6.5 6.3 6.5 6.5 6.5 6.5 6.5 6.5 6.5 6.5 6.5 6.5 6.5 6.5 6.5 6.5 6.4 6.7 6.5 6.5 7.0 7.2 7.3
8.9 9.1 9.2 9.0 9.1 9.2 9.3 9.3 9.2 8.5 8.1 8.1 8.3 9.0 8.3 8.1 9.1 8.3 6.1 6.9 7.8 6.8 6.8 8.0 8.6 8.4 8.1 7.5 6.6 6.9 6.5 5.9 6.4 6.5 6.5 6.5 6.5 6.5 6.5 6.5 6.5 6.5 6.5 6.5 6.5 6.5 4.9 5.8 5.9 6.6 6.7 6.9 7.2 7.2
8.8 8.9 9.0 8.9 9.3 9.0 9.3 9.2 8.9 8.2 8.1 9.0 9.2 9.3 9.3 8.9 8.8 7.8 5.8 5.0 6.6 6.8 7.1 6.9 7.4 7.2 7.4 7.1 6.7 6.5 6.7 7.0 5.4 4.4 3.9 6.2 6.5 6.5 6.5 6.5 6.5 6.5 5.7 6.5 6.5 6.4 6.3 6.5 7.2 7.4 7.4 7.3 7.8 7.9
8.8 8.8 8.9 9.0 8.9 9.0 9.3 8.9 8.1 9.1 9.1 9.2 9.2 9.5 8.8 8.8 8.3 8.2 7.0 6.5 6.8 8.1 6.6 6.7 8.1 6.1 6.6 6.8 6.7 7.4 7.4 8.0 7.3 5.8 3.6 6.5 6.5 6.1 6.5 6.2 6.5 6.1 5.5 6.5 6.5 5.7 6.4 6.7 6.5 6.0 6.8 7.9 7.9 7.6
8.8 8.9 9.0 9.1 9.2 9.3 8.5 9.2 9.4 9.4 9.4 9.3 9.2 8.7 8.7 8.2 7.2 6.3 5.8 4.8 7.4 7.7 6.7 6.9 6.8 8.3 6.9 6.3 6.5 7.3 7.6 7.0 6.6 6.4 6.1 6.5 5.8 6.6 4.5 5.8 6.5 5.0 6.6 6.5 6.5 6.4 5.6 6.1 3.8 5.0 4.8 5.8 6.2 7.2
8.9 9.0 9.3 8.7 8.6 8.2 8.9 9.3 9.4 9.4 9.4 9.1 8.7 8.8 8.4 8.7 6.7 6.8 6.9 6.8 8.3 8.3 6.2 6.5 7.3 7.6 6.6 6.8 7.0 7.5 7.1 6.5 5.6 5.4 5.7 4.8 5.0 6.5 6.5 6.5 5.2 6.2 6.7 6.0 6.1 6.2 5.6 5.5 5.9 2.9 2.4 2.6 2.9 4.6
9.0 8.9 8.9 8.5 9.3 9.4 9.4 9.3 9.4 9.2 8.6 8.5 9.0 8.4 8.3 7.9 6.4 6.6 6.9 7.1 8.6 7.9 7.0 6.6 6.7 7.7 7.0 6.8 7.3 7.5 6.4 5.2 5.3 5.9 6.0 5.4 6.3 6.7 6.5 6.5 5.3 6.0 6.4 6.3 5.9 5.6 6.3 5.3 4.6 3.3 1.5 3.0 3.4 3.1
8.9 8.3 8.3 9.3 9.3 9.3 9.3 9.4 9.2 9.2 9.3 9.3 9.2 8.3 8.2 7.8 7.6 6.1 5.7 6.2 7.3 7.6 7.2 6.5 6.5 6.9 7.4 7.3 6.9 7.2 6.4 5.7 5.9 6.0 6.3 5.6 6.4 5.8 6.5 5.0 5.5 5.2 6.3 6.6 5.8 5.9 5.9 3.9 3.0 4.0 3.1 4.4 5.6 4.4
8.3 8.7 9.3 9.3 9.3 9.4 9.2 9.3 9.3 9.3 9.3 8.2 8.3 8.6 9.0 7.6 7.7 7.3 8.2 7.6 6.8 6.8 6.6 6.6 6.5 6.5 7.1 7.1 7.0 6.6 6.9 6.5 6.8 6.4 6.3 6.8 6.5 6.5 6.2 5.1 4.9 5.2 6.1 6.3 5.9 5.9 5.9 5.5 6.0 6.6 6.5 5.6 5.9 5.8
9.1 9.0 9.3 9.2 9.3 9.2 9.2 8.4 7.8 7.6 7.8 8.1 8.6 8.1 7.2 7.4 8.4 8.1 8.1 7.4 7.1 7.5 7.5 6.6 7.4 6.5 6.8 7.1 6.5 6.2 6.1 6.5 6.5 6.6 7.1 6.5 6.5 5.7 6.1 6.0 6.2 5.5 5.7 7.2 6.8 7.0 7.3 7.2 6.7 6.8 6.0 6.3 6.4 6.5
7.9 9.1 9.1 8.0 9.3 8.9 7.9 7.5 7.4 7.3 8.0 7.3 7.3 7.2 7.7 8.8 7.7 7.4 6.2 5.8 6.5 6.3 7.3 7.1 7.0 6.5 7.6 6.4 6.5 5.9 6.4 6.5 6.5 6.5 6.5 6.5 6.5 5.8 6.2 6.3 6.6 6.5 6.7 7.0 7.4 7.3 7.4 7.0 7.0 6.7 7.3 7.7 7.8 7.6
7.7 8.3 7.5 9.0 9.3 8.4 7.6 7.4 7.2 6.3 5.8 6.6 6.8 7.4 6.9 6.5 5.2 5.8 6.5 6.4 6.3 6.5 7.0 6.5 7.0 6.9 7.2 7.5 6.7 6.3 6.5 6.5 6.5 6.7 6.5 6.5 6.5 6.2 6.7 6.5 6.5 7.0 7.4 8.0 8.2 8.2 8.1 8.5 7.9 7.9 8.0 8.1 8.1 8.3
7.4 7.2 7.7 8.4 7.6 7.3 7.1 6.9 7.0 7.2 7.5 6.8 5.5 3.9 4.8 5.1 6.4 6.5 6.5 6.5 6.5 6.8 6.9 6.9 6.6 6.8 7.3 7.4 6.3 6.4 6.5 6.5 6.8 6.5 6.5 6.5 6.5 7.2 7.2 7.9 8.0 8.2 8.2 8.2 8.3 8.4 8.3 8.5 8.5 8.3 8.1 8.3 7.9 7.9
7.2 7.3 7.7 7.5 7.0 7.0 6.6 6.3 6.7 6.8 5.4 5.0 4.1 6.5 6.3 6.5 6.5 6.5 6.5 6.5 7.1 7.2 7.0 6.9 6.6 6.4 6.9 6.3 6.5 6.5 6.5 6.5 6.5 6.5 6.5 6.5 6.4 7.3 7.9 8.2 7.9 7.9 8.1 7.8 8.1 8.3 8.2 8.0 8.1 8.0 8.2 7.6 7.5 7.5
7.0 7.3 7.7 6.9 6.8 7.0 6.5 6.2 5.6 4.5 4.8 4.1 4.5 6.5 6.5 7.1 6.7 6.9 7.4 7.4 7.6 7.5 7.3 6.6 6.8 6.8 6.1 6.5 6.5 6.5 6.5 6.5 6.5 6.5 6.5 6.8 7.0 7.7 7.7 8.1 7.7 7.7 7.4 6.2 6.7 6.5 7.0 7.1 7.3 7.1 7.2 6.9 7.3 7.2
6.9 7.2 7.1 7.6 6.7 6.4 6.6 5.9 4.6 4.7 4.5 4.5 5.2 5.5 6.9 5.7 6.0 6.4 6.2 6.7 7.6 7.3 7.0 7.1 5.9 6.5 6.5 6.5 6.5 6.5 6.5 6.5 6.5 6.6 7.1 6.9 7.1 7.5 7.5 7.9 8.0 8.0 7.7 7.3 7.5 7.8 8.0 7.9 7.6 6.9 6.9 7.5 7.4 7.1
6.9 6.2 6.8 7.3 7.8 5.5 5.3 4.2 4.3 3.9 4.4 3.9 4.5 7.7 7.0 6.2 6.0 6.8 7.1 7.2 7.5 7.2 6.1 5.4 6.5 6.5 5.5 6.5 6.5 6.5 6.5 6.5 7.0 7.3 7.8 7.5 7.3 7.4 7.0 7.7 8.0 7.9 7.9 7.7 7.4 7.4 7.4 7.8 6.9 7.2 7.3 7.8 7.6 7.5
5.5 5.6 6.1 6.4 6.7 5.6 3.2 4.7 3.3 3.6 4.2 3.8 5.3 6.2 7.5 7.7 7.1 7.1 7.6 7.8 7.1 7.2 6.5 6.3 4.9 6.5 6.5 6.5 6.5 6.6 6.8 7.5 8.0 7.9 8.0 7.7 7.6 7.2 7.9 7.1 8.1 7.7 7.9 7.1 5.4 5.5 7.0 5.7 5.9 7.7 7.4 7.7 6.6 7.2
6.2 5.8 5.4 6.0 6.0 3.6 2.0 2.4 3.6 3.4 3.9 6.0 6.9 6.9 7.2 7.5 8.0 8.3 8.0 8.2 7.6 7.6 5.0 2.3 6.0 6.5 6.5 6.9 6.9 7.4 7.5 7.6 7.5 7.8 8.2 7.4 6.8 6.3 6.5 7.1 7.4 7.8 6.3 4.9 4.9 5.0 6.2 7.2 7.0 7.1 7.3 7.2 7.5 7.4
6.6 6.1 5.5 4.6 5.6 2.3 2.0 2.2 4.1 4.0 3.8 5.7 6.9 5.8 6.6 7.0 7.8 7.5 7.4 8.0 7.2 3.4 3.0 3.6 6.2 6.3 6.3 7.1 7.6 7.5 7.7 7.6 7.2 7.5 7.9 7.8 8.3 6.6 7.1 6.9 7.2 6.9 6.6 6.5 5.7 8.3 5.3 7.0 6.8 7.2 6.8 7.7 7.5 6.9
5.6 5.2 4.8 3.2 1.3 0.5 0.5 0.7 3.1 4.2 5.1 5.2 5.4 6.2 4.8 4.9 4.1 4.5 4.6 7.0 3.5 3.7 5.1 6.6 6.3 7.0 7.5 7.9 8.1 8.3 7.7 6.8 7.4 7.1 7.0 6.9 7.6 7.4 7.2 7.2 6.9 5.5 6.4 6.4 6.8 6.4 7.2 5.9 6.2 6.4 4.8 7.1 7.7 7.7
3.5 4.2 0.4 3.0 0.9 -0.1 0.2 0.7 3.0 3.8 3.4 3.6 3.2 4.1 1.8 2.0 2.4 1.9 3.4 2.7 4.4 6.5 6.5 6.5 7.3 7.6 7.7 7.4 8.0 7.9 8.1 7.6 7.4 7.4 7.8 7.7 6.5 6.4 6.3 6.6 6.9 6.0 5.8 6.1 6.1 5.8 6.2 6.2 6.7 7.2 7.6 6.8 8.0 6.6
3.0 2.7 -0.7 0.2 0.4 0.5 1.1 0.8 0.8 1.1 2.1 2.5 2.0 2.2 2.1 2.2 2.1 2.9 1.7 5.0 6.9 6.9 7.1 7.6 7.4 7.6 7.8 7.4 7.4 8.1 7.8 7.0 6.5 6.6 6.7 6.2 5.9 6.7 7.0 7.0 7.1 6.2 5.5 5.5 5.9 6.3 6.1 7.7 7.2 7.3 7.2 7.1 6.2 6.0
0.5 -3.5 -3.0 -2.5 0.1 1.1 -0.5 0.2 2.2 2.9 1.6 2.8 2.3 6.5 2.3 1.0 1.0 1.5 4.3 6.1 6.4 7.9 7.9 7.8 7.6 7.2 7.3 7.5 7.3 7.4 7.3 6.6 6.3 6.4 6.8 6.0 6.1 6.1 6.4 6.1 5.5 5.2 5.9 6.0 6.1 6.3 6.5 6.8 8.4 7.1 6.7 6.5 6.0 5.6
-0.0 1.2 0.2 1.0 -0.2 1.1 2.1 2.3 1.5 3.1 6.5 3.7 6.0 7.0 2.0 0.4 4.8 6.7 6.4 6.1 6.9 6.8 7.5 7.4 7.2 7.2 7.0 6.4 7.1 7.0 7.2 6.4 5.7 5.5 5.9 5.9 6.4 6.3 6.1 6.3 5.8 6.1 6.8 6.6 6.6 7.2 7.2 7.3 7.3 7.3 7.3 7.2 6.6 4.9
5.4 0.8 1.7 2.3 2.4 4.0 4.3 6.5 6.5 5.6 3.7 6.7 4.7 2.6 0.8 2.2 6.5 6.5 6.2 6.6 6.8 6.7 7.1 7.0 6.8 6.5 6.2 6.5 6.3 6.1 6.3 6.2 5.7 5.4 5.9 5.9 5.9 5.6 5.2 5.4 5.6 6.1 7.3 7.4 7.2 6.8 6.9 7.3 7.6 7.5 7.4 7.3 8.6 7.8
6.7 2.6 2.9 6.0 5.4 4.7 4.4 3.9 3.7 3.2 6.5 6.5 3.3 2.8 3.3 6.5 6.5 6.3 6.3 6.7 6.4 6.9 6.6 6.4 6.2 6.3 6.2 6.1 6.1 5.9 5.8 5.7 5.5 5.6 5.3 5.0 5.0 5.1 5.4 5.5 5.5 6.4 7.0 7.1 7.1 7.2 7.6 7.2 7.0 7.1 7.3 6.8 6.7 6.2
2.4 2.5 2.6 1.6 2.2 2.9 2.1 2.5 2.6 6.4 4.1 5.0 4.9 6.4 6.5 6.5 6.2 5.3 6.3 5.8 5.2 5.0 5.1 5.7 6.1 6.1 6.1 5.9 5.8 5.7 5.2 4.8 5.1 5.2 5.3 5.4 5.5 5.5 5.7 6.0 6.6 8.0 7.9 6.7 7.6 7.1 6.7 7.0 6.2 6.1 5.3 5.0 5.0 5.2
1.4 2.5 3.1 -0.5 0.5 1.1 1.8 2.7 3.7 3.6 3.8 4.0 3.5 4.0 2.9 3.9 3.3 3.5 4.9 5.3 5.2 5.2 5.7 5.2 5.0 4.8 4.4 4.7 4.9 5.3 5.6 5.5 5.1 3.9 4.0 4.6 4.9 5.4 6.4 6.1 6.0 6.0 6.2 5.5 6.2 7.0 8.0 7.6 6.8 5.3 4.3 4.3 4.7 4.8
0.0 0.3 0.3 -1.8 0.7 3.9 1.2 -0.5 -0.5 -0.8 1.2 1.4 1.4 1.4 2.1 1.4 1.5 1.8 3.2 3.2 3.9 4.7 5.0 5.2 5.7 4.9 4.9 5.0 4.4 4.5 5.2 5.0 5.3 5.1 4.8 4.4 4.7 5.3 5.5 5.8 6.2 5.6 5.3 4.6 4.5 4.3 5.8 5.1 4.5 3.7 4.2 4.1 4.2 4.1
-0.0 -0.1 -0.3 1.1 0.8 -0.7 -2.4 -4.0 -4.4 -1.9 -2.6 -3.1 -3.1 -1.4 0.4 -1.3 -0.5 0.5 1.3 2.0 2.2 2.9 3.3 4.4 4.0 4.6 4.5 4.2 3.8 3.3 3.2 4.0 4.2 3.9 4.9 5.6 5.4 5.7 6.2 6.3 6.1 5.4 4.8 4.3 4.4 4.4 4.0 4.0 4.0 3.9 3.8 3.5 3.6 4.0
-0.7 -2.7 -0.8 1.3 0.0 -2.9 -4.6 -4.0 -3.6 -2.4 -3.0 -2.2 -1.5 -3.7 -2.3 -1.5 0.2 0.6 0.6 -0.4 0.2 3.2 4.5 4.1 3.7 3.7 3.9 3.6 3.5 3.8 5.7 4.0 3.2 2.6 3.1 5.9 7.3 7.4 6.9 6.3 6.1 5.3 4.7 4.5 4.6 4.5 4.2 4.0 3.9 3.8 3.7 3.6 3.6 3.4
-4.2 -4.0 -3.8 -2.4 -1.7 -0.9 -2.5 -2.6 -1.9 -2.0 -2.2 -2.1 -1.8 -2.7 -2.9 -1.3 0.5 0.9 1.8 2.5 2.3 2.6 2.8 3.1 2.8 2.5 2.5 2.0 2.4 2.8 3.4 2.7 2.9 4.8 5.8 7.4 8.7 8.5 6.1 6.4 5.9 5.2 4.4 4.2 4.2 4.1 3.8 3.7 3.6 3.2 3.0 2.9 3.0 3.1
Wind_Speed
12 13 16 16 18 19 16 18 20 21 21 23 21 21 23 20 15 9 3 14 4 2 3 4 4 2 2 3 4 5 4 2 2 2 3 2 2 2 1 3 3 3 3 3 4 4 1 12 5 3 2 5 8 8
14 15 16 17 18 20 20 23 23 23 23 22 23 26 23 18 17 10 3 14 13 3 3 3 5 7 4 3 1 2 2 2 2 2 3 3 3 3 2 1 4 1 2 1 3 2 3 3 6 5 4 4 6 7
15 16 17 19 19 21 21 21 24 24 20 22 21 21 22 19 18 4 1 1 2 0 4 3 1 7 6 3 2 2 2 4 2 2 1 2 4 3 3 2 3 2 2 1 3 3 5 6 7 7 6 5 7 8
18 18 18 19 20 21 20 24 22 25 24 22 22 22 21 19 14 10 4 6 1 1 2 3 6 5 4 4 5 4 2 0 1 2 1 2 2 4 1 2 4 1 3 3 2 4 2 8 6 4 6 8 8 9
17 17 19 18 20 21 23 22 24 26 25 21 21 20 17 12 10 7 4 3 7 1 2 2 6 5 5 5 5 4 3 3 2 1 3 2 2 2 2 3 3 3 1 2 2 4 2 2 3 5 4 5 5 7
18 19 19 20 23 21 23 23 22 23 24 19 20 18 17 13 4 1 1 2 6 2 0 1 3 5 5 6 7 7 4 3 2 2 2 2 2 2 2 3 1 3 2 3 2 3 2 5 1 3 3 4 4 2
19 18 21 20 24 23 24 23 22 23 22 18 16 13 14 11 10 3 3 3 5 4 0 1 3 2 3 1 2 3 4 2 3 2 2 2 2 3 2 3 3 4 2 3 3 5 1 4 3 7 4 7 7 4
18 21 19 22 22 22 21 23 24 22 20 19 14 5 10 11 8 5 8 14 5 0 2 2 2 2 5 2 1 1 2 2 4 2 1 2 1 2 3 1 3 4 3 4 3 3 2 4 5 6 4 3 6 5
20 21 21 22 21 20 23 23 23 22 19 14 6 2 1 4 3 1 5 12 14 4 2 3 5 3 6 1 0 1 1 3 2 2 2 0 2 4 1 2 3 3 3 4 6 5 4 3 4 4 4 5 4 5
21 19 20 19 18 21 22 21 21 20 11 7 3 1 2 2 7 3 2 2 4 3 4 3 5 3 4 3 1 1 2 2 2 2 1 3 2 3 1 2 1 3 4 4 3 6 6 5 5 4 4 3 3 3
19 19 17 16 19 18 18 19 19 14 7 3 3 2 2 9 1 3 3 3 3 3 3 3 4 4 2 2 3 2 2 1 2 2 1 2 2 1 3 2 0 3 3 3 2 3 3 3 3 3 5 5 5 5
18 17 13 17 18 17 16 16 15 6 3 3 3 2 3 4 3 5 3 3 4 4 2 4 5 3 2 2 2 2 2 2 3 1 2 3 1 2 3 2 2 3 4 4 4 5 5 7 4 5 5 5 6 7
17 9 15 17 16 15 14 14 9 5 1 2 3 4 4 4 9 6 6 3 3 4 4 6 6 2 2 2 1 2 3 3 2 3 3 2 2 4 4 5 6 5 6 7 6 6 6 6 5 4 4 5 5 6
12 6 17 16 16 11 13 14 10 5 4 4 4 7 4 5 5 4 4 3 3 4 6 6 4 2 2 2 2 3 2 2 3 3 3 3 3 4 5 6 6 7 7 6 7 7 7 6 6 5 5 4 5 5
8 3 16 15 17 7 13 12 16 9 4 4 5 5 4 3 3 3 5 4 4 5 5 4 2 2 2 3 3 3 3 4 4 3 2 3 3 5 6 8 6 5 5 4 3 3 4 4 4 4 4 5 5 4
6 2 9 12 17 11 5 10 9 3 3 4 6 4 5 4 5 5 3 4 5 5 4 2 2 3 4 2 4 5 3 4 2 2 3 2 3 4 5 8 7 6 5 5 5 6 7 5 4 4 6 4 4 5
5 3 15 5 9 18 16 4 4 6 4 5 3 5 4 2 3 5 4 5 6 3 2 2 4 3 2 3 3 3 3 3 3 3 4 4 4 5 3 5 6 5 5 5 5 6 7 4 5 5 3 5 5 5
3 11 12 4 1 6 3 5 4 5 6 3 3 3 5 4 4 5 4 4 5 4 3 2 2 5 4 3 2 2 2 3 4 4 4 3 3 3 5 5 6 5 5 5 4 5 5 3 4 4 5 5 5 4
8 13 14 9 7 4 4 5 4 4 2 1 1 2 3 4 5 5 5 5 3 3 3 3 5 3 3 3 4 5 4 4 4 5 4 1 2 1 4 4 5 4 3 4 3 3 4 4 4 3 3 3 5 3
9 17 14 18 7 3 5 3 2 4 2 1 2 2 2 2 4 5 7 7 5 3 5 4 2 2 1 3 4 4 4 3 3 5 5 5 5 2 3 3 3 4 4 4 4 9 3 2 2 2 3 5 4 2
6 9 14 8 4 6 4 3 4 2 1 3 2 2 1 2 3 4 4 5 4 3 3 2 2 2 3 3 3 4 4 2 4 2 4 5 5 4 3 3 3 2 2 3 3 5 7 3 3 3 3 5 5 4
3 7 3 8 4 4 4 4 2 1 3 1 2 2 3 2 3 3 3 4 2 1 1 2 3 4 5 5 5 5 5 5 5 5 9 7 4 5 5 5 5 4 3 4 3 4 4 3 4 5 4 4 7 3
5 5 4 5 6 6 2 2 4 5 3 2 2 3 3 3 1 2 2 1 1 1 1 2 4 5 5 5 5 5 3 4 4 4 5 4 4 5 5 5 4 5 5 5 3 4 5 10 8 7 5 5 4 4
10 5 5 4 5 1 2 4 2 3 3 3 3 3 4 2 4 3 2 1 1 2 3 6 4 4 4 4 3 4 3 2 4 4 3 3 5 5 5 5 4 4 5 5 5 5 5 6 11 6 6 6 5 5
6 8 5 5 3 5 5 4 5 4 3 2 3 3 3 2 3 3 1 2 2 2 3 4 4 4 4 3 4 4 4 1 4 6 5 3 4 5 5 5 4 5 5 4 5 6 7 6 6 7 8 8 9 9
7 4 4 1 3 4 1 3 3 1 2 3 1 2 2 2 4 2 2 3 2 2 3 4 4 5 5 4 5 5 5 3 4 4 5 2 4 5 5 6 6 6 2 3 6 9 10 9 8 10 8 10 16 11
5 3 2 2 1 3 3 2 1 3 3 2 2 3 3 4 2 1 1 1 2 3 3 4 4 5 5 6 5 4 4 4 3 6 7 6 5 4 5 5 7 6 10 8 6 8 8 8 9 8 6 5 5 4
2 3 4 3 3 2 4 2 2 1 1 2 1 4 3 3 1 2 2 2 2 3 4 4 3 3 5 5 5 5 4 3 5 6 5 3 6 7 8 8 10 16 13 10 7 5 6 6 5 4 5 5 5 4
3 2 2 4 3 4 3 2 1 1 2 1 1 1 2 1 1 2 2 3 4 3 5 5 5 3 3 3 3 3 4 4 6 7 9 7 7 4 6 9 9 9 6 6 13 13 11 6 7 2 3 5 4 4
3 2 3 3 4 3 2 1 1 2 1 1 1 2 2 2 2 1 2 2 3 4 5 5 4 4 5 5 6 6 4 3 1 2 5 7 7 9 8 7 5 4 7 5 5 5 12 6 6 4 5 4 4 2
2 2 4 3 2 1 1 2 2 2 1 1 1 1 2 3 3 2 1 2 3 3 4 4 5 4 4 5 5 6 6 2 5 8 8 6 7 9 4 7 8 5 7 3 4 4 5 5 5 5 6 6 7 7
3 3 3 3 1 2 1 2 1 1 2 2 2 1 3 3 2 2 1 2 3 4 8 7 6 7 6 4 4 5 12 6 8 12 14 12 9 6 7 12 4 3 4 4 4 4 5 5 5 6 6 7 7 6
2 2 3 3 3 3 3 3 4 3 3 3 2 1 1 2 3 3 2 1 1 3 5 7 7 8 8 7 6 9 13 12 15 18 19 20 20 18 13 12 1 3 4 4 6 5 7 8 7 8 8 7 8 6
Wind_Direction
341 340 337 331 326 334 322 318 310 312 318 315 322 313 311 309 309 284 255 193 174 211 265 209 172 186 292 259 290 337 286 43 320 334 356 25 328 120 63 39 355 22 345 24 321 45 309 338 57 55 348 4 23 2
337 334 330 326 327 325 325 323 321 322 318 311 320 323 315 306 313 312 236 203 198 206 252 344 240 228 255 250 270 244 310 22 30 351 24 324 340 22 180 95 18 167 36 32 54 147 141 37 74 54 28 10 11 2
331 324 326 324 326 326 325 325 322 332 332 330 326 322 323 310 305 260 187 168 123 232 256 211 247 75 69 46 245 307 72 10 71 184 258 270 75 335 34 66 130 85 4 60 181 118 97 75 58 40 18 7 9 5
330 331 328 328 328 327 323 325 331 333 326 325 322 323 329 328 317 300 204 173 139 290 285 117 116 54 33 21 4 348 355 145 115 71 58 44 57 14 52 161 62 321 330 338 100 31 119 84 52 36 7 14 10 349
326 330 327 328 326 322 327 333 334 329 325 322 330 330 327 336 352 351 68 132 226 1 325 109 98 60 55 47 25 338 46 30 33 47 32 50 53 26 20 81 39 346 349 13 54 21 287 60 336 19 3 360 350 338
329 331 330 324 324 336 334 335 335 334 334 336 337 338 327 315 138 232 142 265 193 154 126 239 83 41 21 70 65 51 52 50 60 68 77 69 263 300 79 83 3 10 28 60 20 328 308 292 318 10 332 318 300 357
334 331 325 338 337 337 336 336 334 337 340 339 350 353 5 65 56 29 10 314 123 68 358 208 103 55 33 178 165 74 45 59 80 77 52 74 15 12 42 75 341 2 45 70 32 324 177 33 296 309 294 301 315 294
329 328 342 340 340 340 343 335 331 337 337 338 341 24 73 95 74 30 8 49 63 74 24 355 99 120 6 338 29 117 85 86 21 114 70 77 68 63 68 25 26 354 336 66 25 349 249 264 307 309 273 300 339 331
337 344 343 342 346 344 341 342 341 336 338 337 340 234 89 30 43 76 32 59 56 33 67 44 360 39 341 331 276 130 128 78 185 82 62 248 61 48 31 357 4 326 343 313 314 288 281 283 300 331 350 341 333 323
345 344 343 349 347 350 348 346 343 340 343 342 314 30 60 25 315 222 239 32 32 29 29 57 346 6 345 339 311 350 24 135 86 50 104 76 85 153 6 319 27 340 322 341 2 357 354 354 338 342 317 298 310 322
347 345 352 352 347 358 353 353 352 352 16 25 41 60 11 328 290 28 55 37 11 61 28 2 26 332 30 325 338 56 359 141 111 103 104 98 68 9 343 2 298 304 319 324 327 295 325 323 328 342 338 341 354 349
347 352 3 351 354 358 358 1 7 25 25 67 89 48 30 23 11 65 10 22 37 39 34 353 333 314 298 307 285 20 4 29 81 115 89 79 58 9 354 3 343 3 351 352 353 341 352 339 1 339 338 346 355 338
351 18 7 359 4 1 7 8 20 43 315 49 49 46 34 350 39 45 6 0 2 4 12 339 328 312 293 16 291 351 58 54 136 48 61 57 29 26 360 3 2 5 359 358 348 351 345 338 341 355 338 347 345 338
359 40 14 13 6 19 22 22 23 54 57 56 54 31 58 14 30 29 350 346 315 341 333 312 291 355 344 348 335 62 37 14 55 59 65 58 6 11 6 6 358 350 360 353 341 342 340 341 337 347 347 343 333 337
4 39 18 20 12 33 40 41 48 56 53 55 36 42 40 73 47 6 352 322 2 332 321 306 284 347 354 37 8 21 46 62 31 46 36 25 15 11 4 355 348 346 340 322 315 308 301 296 299 314 326 317 322 334
6 76 10 20 24 28 47 52 33 59 52 62 40 19 354 19 2 0 348 326 350 320 292 267 358 37 31 21 41 16 46 41 35 12 8 350 12 12 6 341 337 334 338 336 334 335 342 347 355 318 305 306 311 310
49 47 346 353 52 45 42 66 47 49 68 49 32 25 25 43 352 346 335 336 319 298 24 25 47 8 8 44 48 19 32 3 350 351 348 2 17 348 324 331 337 344 336 336 344 335 329 350 327 309 331 328 326 312
49 9 4 24 121 58 37 32 72 71 60 4 69 352 35 26 2 357 350 352 359 0 33 59 22 29 34 38 41 19 1 344 1 355 337 352 351 335 346 322 330 328 327 343 316 305 308 351 332 341 338 333 321 313
66 40 30 49 70 81 64 23 51 85 88 153 80 28 56 30 19 21 4 15 18 14 69 34 51 27 32 24 7 353 352 358 344 325 316 294 304 299 294 305 309 316 331 295 289 289 292 295 279 276 289 307 305 312
64 39 41 45 55 72 60 14 39 82 82 143 27 24 31 12 10 14 14 23 18 56 37 46 33 12 356 334 351 331 336 345 327 326 332 343 332 322 324 303 302 302 301 304 296 316 295 299 303 318 301 289 327 300
42 6 31 53 47 62 84 360 44 72 81 71 348 7 12 353 18 4 0 348 39 42 43 32 3 341 325 309 333 339 327 351 321 298 306 297 312 326 321 317 301 287 281 296 302 304 329 290 280 286 272 286 280 281
10 23 56 30 74 55 73 359 80 347 67 101 41 25 29 22 344 349 305 28 49 29 0 319 339 334 324 333 339 327 318 319 312 303 321 318 322 322 321 315 314 308 302 298 293 284 291 290 292 280 278 283 307 292
39 44 43 30 68 47 298 4 65 2 73 328 9 38 3 1 281 318 50 6 51 19 302 334 333 316 309 305 306 313 330 318 311 313 311 305 298 299 299 306 311 308 305 300 298 305 297 300 315 308 295 309 289 288
46 48 47 52 53 83 14 23 31 55 35 26 41 19 345 307 318 49 54 346 306 351 5 356 339 329 329 334 328 324 330 309 301 303 309 307 305 309 310 299 289 277 273 283 288 287 284 282 300 306 291 284 278 270
66 348 56 11 351 60 46 25 4 45 53 333 52 358 328 350 53 44 329 313 337 345 353 345 343 337 323 309 321 323 338 332 315 313 309 283 290 306 309 305 291 280 283 279 290 294 296 294 288 286 285 283 276 270
69 318 74 16 346 85 11 67 45 42 58 31 331 260 9 47 54 359 349 337 325 315 343 340 332 327 325 325 321 326 327 326 311 295 296 324 306 298 298 303 309 315 315 293 296 298 297 297 298 296 289 285 302 323
67 0 7 29 78 95 74 55 23 81 57 33 309 4 50 56 336 318 345 27 315 340 332 316 308 306 309 316 316 317 314 310 284 285 295 290 278 265 263 277 293 290 301 297 300 297 308 314 310 313 317 335 334 343
115 33 93 301 49 20 110 63 68 70 310 301 19 29 122 165 292 326 349 349 307 305 302 296 294 310 317 314 310 310 308 293 298 303 303 291 261 265 262 268 281 307 335 320 320 325 313 306 315 336 345 331 326 333
51 351 76 32 25 48 45 87 117 46 358 343 82 351 284 279 291 327 338 332 309 315 336 335 331 324 299 297 296 304 318 325 344 345 344 329 325 318 331 320 308 302 317 328 334 343 331 17 347 30 351 324 316 309
340 341 82 51 71 39 296 356 340 315 311 41 306 302 293 290 267 281 297 329 345 331 320 311 324 329 330 337 333 336 335 312 329 320 313 304 299 303 306 302 306 324 330 323 325 325 346 10 347 346 349 341 335 336
324 11 62 56 93 273 270 310 297 278 340 337 322 136 263 297 308 256 248 288 296 304 316 338 335 331 336 334 334 326 325 316 344 319 304 298 297 298 290 302 305 328 327 320 326 330 337 340 338 336 337 339 337 358
20 55 104 86 311 287 19 29 331 27 324 30 331 357 334 7 317 288 292 16 343 347 343 347 333 327 329 316 303 292 318 325 318 310 302 299 308 315 313 320 299 338 336 334 329 332 336 341 337 343 339 339 338 341
45 36 31 80 30 13 336 49 16 358 12 15 322 273 241 175 245 275 313 244 252 296 318 320 311 306 303 303 303 309 335 325 328 346 343 350 351 2 4 337 30 21 344 343 349 345 350 351 353 354 351 347 343 345